Location: Zagreb
(45.8000°N, 16.0000°E)
Time: 00:15:43
(UTC+01:00)

Transit 2A Rocket - Pass Details

Date: 09 October 2020
Orbit: 586 x 916 km, 66.7° (Epoch: 28 October)

Event Time Altitude Azimuth Distance (km) Brightness Sun altitude
Rises 21:17:18 0° 329° (NNW) 3,464 9.2 -31.0°
Reaches altitude 10° 21:21:16 10° 354° (N) 2,460 7.9 -31.6°
Enters shadow 21:23:21 13° 16° (NNE) 2,181 7.4 -31.9°
Maximum altitude 21:24:05 14° 25° (NNE) 2,148 - -32.1°
Drops below altitude 10° 21:26:48 10° 55° (NE) 2,348 - -32.5°
Sets 21:30:24 0° 81° (E) 3,191 - -33.0°
